Current Weather Conditions: station 63108

sailwx.info

Last reported at 2019-Feb-01 01:26 UTC.
Time now 2019-Dec-11 17:41 UTC

Location: N 60°48' E 001°42'.
View on Google Maps.

See reports from other nearby stations

  
Tides and Currents Weather Stations Pressure Air Temp Water Temp Dewpoint Dewpoint Depression Visibility Wind Speed Wind Dir Waves Ship Positions
date/time (UTC)wind fromknots sea level pressurealtimeterstation pressurevisibilityair tempwater tempwave heightnotes
2019-Dec-11 16:00 200 42 5.4 7.1 6.5
2019-Dec-11 15:00 200 39 0.1 7.1 6.7
2019-Dec-11 14:00 210 39 5.4 6.8 6.4
2019-Dec-11 13:00 210 39 5.4 6.5 6.6
2019-Dec-11 12:00 200 41 5.4 6.9 6.6
2019-Dec-11 11:00 210 39 5.4 6.4 6.1
2019-Dec-11 10:00 210 40 1.1 7.2 6.2
2019-Dec-11 09:00 220 35 2.2 7.2 6.0
2019-Dec-11 08:00 220 40 2.2 6.2 6.0
2019-Dec-11 07:00 230 36 5.4 7.0 6.0
2019-Dec-11 06:00 230 36 5.4 6.6 6.0
2019-Dec-11 05:00 230 33 5.4 6.4 6.4
2019-Dec-11 04:00 220 32 5.4 7.0 5.6
2019-Dec-11 03:00 230 34 5.4 7.6 6.3
2019-Dec-11 02:00 230 32 5.4 7.6 5.6
2019-Dec-11 01:00 230 34 10.8 7.1 6.1
2019-Dec-11 00:00 230 34 5.4 7.7 5.5
2019-Dec-10 23:00 230 33 5.4 7.5 6.2
2019-Dec-10 22:00 240 24 10.8 6.6 6.1
2019-Dec-10 21:00 240 24 5.4 7.1 6.9
2019-Dec-10 20:00 250 28 1.1 7.2
2019-Dec-10 19:00 220 31 1.1 8.6 7.8
2019-Dec-10 18:00 190 39 1.1 8.6 7.5
2019-Dec-10 17:00 190 41 1.1 8.1 8.3
2019-Dec-10 16:00 190 42 1.1 7.8 7.7
2019-Dec-10 15:00 180 44 0.5 7.3 7.7
2019-Dec-10 14:00 180 47 1.1 7.1 7.4
2019-Dec-10 13:00 180 45 0.5 6.7 6.8
2019-Dec-10 12:00 180 47 2.2 6.2 5.8
2019-Dec-10 11:00 170 46 2.2 6.0 6.0
2019-Dec-10 10:00 170 42 1.1 6.2 5.1
2019-Dec-10 09:00 180 39 2.2 7.0 4.1
2019-Dec-10 08:00 170 40 5.4 6.8 4.0
2019-Dec-10 07:00 180 36 10.8 6.4 3.6
2019-Dec-10 06:00 180 33 10.8 5.2 3.3
2019-Dec-10 05:00 180 31 10.8 4.7 3.0
2019-Dec-10 04:00 190 27 27.0 5.0 3.4
2019-Dec-10 03:00 190 21 27.0 4.8 3.3
2019-Dec-10 02:00 190 14 27.0 4.6 3.6
2019-Dec-10 01:00 210 12 27.0 4.4 4.2
2019-Dec-10 00:00 220 6 27.0 4.3 4.2
2019-Dec-09 23:00 260 1 27.0 4.3 4.1
2019-Dec-09 22:00 350 6 27.0 4.6 4.5
2019-Dec-09 21:00 340 8 27.0 4.5 4.7
2019-Dec-09 20:00 350 11 27.0 3.8 5.0
2019-Dec-09 19:00 350 17 27.0 4.0 5.3
2019-Dec-09 18:00 340 20 27.0 4.0 5.2
2019-Dec-09 17:00 340 21 27.0 3.6 5.9